FW8901 Weather Reports


Display with metric or nautical units.
time (UTC)temp
F
wind
direction
speed
MPH
gust
MPH
rain 1hr
in
rain 24hr
in
rain mn
in
humidity
%
barometer
mb
20260831225546 83 0.0 0.0 0.00 0.00 0.00 79 1018.8
20260831225049 83 0.0 0.0 0.00 0.00 0.00 78 1018.8
20260831224600 84 0.0 0.0 0.00 0.00 0.00 78 1018.8
20260831224044 84 0.0 0.0 0.00 0.00 0.00 78 1018.9
20260831223548 84 0.0 0.0 0.00 0.00 0.00 78 1018.9
20260831223105 84 0.0 0.0 0.00 0.00 0.00 77 1018.9
20260831222548 84 0.0 0.0 0.00 0.00 0.00 76 1018.9
20260831222047 84 0.0 0.0 0.00 0.00 0.00 76 1019.1
20260831221604 84 0.0 0.0 0.00 0.00 0.00 75 1019.1
20260831221046 84 0.0 0.0 0.00 0.00 0.00 75 1019.1
20260831220551 85 0.0 0.0 0.00 0.00 0.00 75 1019.1
20260831215547 85 0.0 0.0 0.00 0.00 0.00 75 1019.1
20260831215046 85 0.0 0.0 0.00 0.00 0.00 75 1019.1
20260831214623 85 0.0 0.0 0.00 0.00 0.00 74 1018.9
20260831214044 85 0.0 0.0 0.00 0.00 0.00 74 1019.0
20260831213547 85 0.0 0.0 0.00 0.00 0.00 74 1019.0
20260831213107 85 0.0 0.0 0.00 0.00 0.00 74 1019.0
20260831212549 85 0.0 0.0 0.00 0.00 0.00 75 1018.9
20260831212047 85 0.0 0.0 0.00 0.00 0.00 74 1018.8
20260831211605 85 0.0 0.0 0.00 0.00 0.00 74 1018.8
20260831211044 85 0.0 0.0 0.00 0.00 0.00 73 1018.9
20260831210550 85 0.0 0.0 0.00 0.00 0.00 72 1018.8
20260831210100 85 0.0 0.0 0.00 0.00 0.00 73 1018.8
20260831205544 85 0.0 0.0 0.00 0.00 0.00 73 1018.8
20260831205046 85 0.0 0.0 0.00 0.00 0.00 73 1018.8
20260831204606 85 0.0 0.0 0.00 0.00 0.00 72 1018.8
20260831204049 85 0.0 0.0 0.00 0.00 0.00 73 1018.8
20260831203547 85 0.0 0.0 0.00 0.00 0.00 70 1018.8
20260831203104 86 0.0 0.0 0.00 0.00 0.00 70 1018.9
20260831202546 86 0.0 0.0 0.00 0.00 0.00 69 1018.9
20260831202047 85 0.0 0.0 0.00 0.00 0.00 72 1018.9
20260831201620 85 0.0 0.0 0.00 0.00 0.00 70 1018.9
20260831201047 85 0.0 0.0 0.00 0.00 0.00 71 1018.8
20260831200545 85 0.0 0.0 0.00 0.00 0.00 70 1018.9
20260831195546 86 0.0 0.0 0.00 0.00 0.00 69 1018.8
20260831195043 85 0.0 0.0 0.00 0.00 0.00 68 1018.8
20260831194601 85 0.0 0.0 0.00 0.00 0.00 70 1018.8
20260831194043 85 0.0 0.0 0.00 0.00 0.00 69 1018.9
20260831193544 86 0.0 0.0 0.00 0.00 0.00 70 1018.9
20260831193127 86 0.0 0.0 0.00 0.00 0.00 69 1019.0
20260831192546 86 0.0 0.0 0.00 0.00 0.00 67 1019.2
20260831192050 86 0.0 0.0 0.00 0.00 0.00 67 1019.3
20260831191601 86 0.0 0.0 0.00 0.00 0.00 66 1019.2
20260831191047 87 0.0 0.0 0.00 0.00 0.00 68 1019.4
20260831190547 86 0.0 0.0 0.00 0.00 0.00 66 1019.4
20260831185544 86 0.0 0.0 0.00 0.00 0.00 69 1019.6
20260831185043 87 0.0 0.0 0.00 0.00 0.00 67 1019.5
20260831184557 87 0.0 0.0 0.00 0.00 0.00 68 1019.5
20260831184043 87 0.0 0.0 0.00 0.00 0.00 68 1019.4
20260831183543 86 0.0 0.0 0.00 0.00 0.00 68 1019.4
20260831183106 86 0.0 0.0 0.00 0.00 0.00 69 1019.4
20260831182548 86 0.0 0.0 0.00 0.00 0.00 69 1019.4
20260831182047 86 0.0 0.0 0.00 0.00 0.00 65 1019.4
20260831181614 87 0.0 0.0 0.00 0.00 0.00 65 1019.4
20260831181047 87 0.0 0.0 0.00 0.00 0.00 64 1019.4
20260831180543 88 0.0 0.0 0.00 0.00 0.00 61 1019.5
20260831180109 88 0.0 0.0 0.00 0.00 0.00 61 1019.6
20260831175550 88 0.0 0.0 0.00 0.00 0.00 60 1019.7
20260831175047 90 0.0 0.0 0.00 0.00 0.00 59 1019.7
20260831174602 89 0.0 0.0 0.00 0.00 0.00 63 1019.6
20260831174047 89 0.0 0.0 0.00 0.00 0.00 63 1019.5
20260831173550 90 0.0 0.0 0.00 0.00 0.00 59 1019.6
20260831173105 91 0.0 0.0 0.00 0.00 0.00 59 1019.6
20260831172559 91 0.0 0.0 0.00 0.00 0.00 59 1019.6
20260831172047 90 0.0 0.0 0.00 0.00 0.00 61 1019.7
20260831171607 88 0.0 0.0 0.00 0.00 0.00 65 1019.8
20260831171047 88 0.0 0.0 0.00 0.00 0.00 63 1019.9
20260831170547 88 0.0 0.0 0.00 0.00 0.00 59 1019.8
20260831170100 88 0.0 0.0 0.00 0.00 0.00 63 1020.0
20260831165546 87 0.0 0.0 0.00 0.00 0.00 63 1020.2
20260831165043 87 0.0 0.0 0.00 0.00 0.00 67 1020.2
20260831164614 87 0.0 0.0 0.00 0.00 0.00 67 1020.2
20260831164046 88 0.0 0.0 0.00 0.00 0.00 65 1020.2
20260831163546 86 0.0 0.0 0.00 0.00 0.00 71 1020.2
20260831163104 85 0.0 0.0 0.00 0.00 0.00 68 1020.4
20260831162549 87 0.0 0.0 0.00 0.00 0.00 67 1020.4
20260831162057 86 0.0 0.0 0.00 0.00 0.00 66 1020.5
20260831161611 86 0.0 0.0 0.00 0.00 0.00 68 1020.4
20260831161050 86 0.0 0.0 0.00 0.00 0.00 68 1020.5
20260831160547 86 0.0 0.0 0.00 0.00 0.00 69 1020.4
20260831160109 85 0.0 0.0 0.00 0.00 0.00 69 1020.4
20260831155548 85 0.0 0.0 0.00 0.00 0.00 68 1020.4
20260831155048 84 0.0 0.0 0.00 0.00 0.00 70 1020.3
20260831154627 85 0.0 0.0 0.00 0.00 0.00 70 1020.3
20260831154047 84 0.0 0.0 0.00 0.00 0.00 72 1020.3
20260831153544 83 0.0 0.0 0.00 0.00 0.00 72 1020.2
20260831153109 83 0.0 0.0 0.00 0.00 0.00 74 1020.2
20260831152551 82 0.0 0.0 0.00 0.00 0.00 75 1020.1
20260831152057 82 0.0 0.0 0.00 0.00 0.00 76 1020.3
20260831151601 81 0.0 0.0 0.00 0.00 0.00 76 1020.4
20260831151050 81 0.0 0.0 0.00 0.00 0.00 76 1020.3
20260831150545 81 0.0 0.0 0.00 0.00 0.00 77 1020.4
20260831150108 80 0.0 0.0 0.00 0.00 0.00 79 1020.4
20260831145548 80 0.0 0.0 0.00 0.00 0.00 78 1020.5
20260831145043 80 0.0 0.0 0.00 0.00 0.00 78 1020.4
20260831144607 80 0.0 0.0 0.00 0.00 0.00 79 1020.4
20260831144048 79 0.0 0.0 0.00 0.00 0.00 81 1020.3
20260831143547 78 0.0 0.0 0.00 0.00 0.00 81 1020.3
20260831143107 79 0.0 0.0 0.00 0.00 0.00 81 1020.4
20260831142547 78 0.0 0.0 0.00 0.00 0.00 83 1020.3
20260831142050 77 0.0 0.0 0.00 0.00 0.00 83 1020.3
20260831141606 77 0.0 0.0 0.00 0.00 0.00 83 1020.2
20260831141047 78 0.0 0.0 0.00 0.00 0.00 82 1020.2
20260831140547 78 0.0 0.0 0.00 0.00 0.00 82 1020.1
20260831140106 78 0.0 0.0 0.00 0.00 0.00 83 1020.0
20260831135547 78 0.0 0.0 0.00 0.00 0.00 82 1020.0
20260831135052 78 0.0 0.0 0.00 0.00 0.00 83 1020.1
20260831134606 77 0.0 0.0 0.00 0.00 0.00 84 1020.0
20260831134048 76 0.0 0.0 0.00 0.00 0.00 85 1020.1
20260831133546 76 0.0 0.0 0.00 0.00 0.00 86 1020.2
20260831133106 75 0.0 0.0 0.00 0.00 0.00 87 1020.1
20260831132547 74 0.0 0.0 0.00 0.00 0.00 91 1020.1
20260831132047 73 0.0 0.0 0.00 0.00 0.00 94 1020.2
20260831131604 72 0.0 0.0 0.00 0.00 0.00 94 1020.2
20260831131047 72 0.0 0.0 0.00 0.00 0.00 94 1020.4
20260831130546 72 0.0 0.0 0.00 0.00 0.00 94 1020.5
20260831130109 71 0.0 0.0 0.00 0.00 0.00 94 1020.4
20260831125547 71 0.0 0.0 0.00 0.00 0.00 94 1020.4
20260831125048 71 0.0 0.0 0.00 0.00 0.00 94 1020.4
20260831124611 71 0.0 0.0 0.00 0.00 0.00 94 1020.3
20260831124049 70 0.0 0.0 0.00 0.00 0.00 94 1020.2
20260831123547 70 0.0 0.0 0.00 0.00 0.00 94 1020.2
20260831123105 70 0.0 0.0 0.00 0.00 0.00 94 1020.2
20260831122547 70 0.0 0.0 0.00 0.00 0.00 94 1020.1
20260831122047 70 0.0 0.0 0.00 0.00 0.00 94 1020.1
20260831121601 70 0.0 0.0 0.00 0.00 0.00 94 1020.1
20260831121047 69 0.0 0.0 0.00 0.00 0.00 94 1020.2
20260831120547 69 0.0 0.0 0.00 0.00 0.00 93 1020.0
20260831120106 69 0.0 0.0 0.00 0.00 0.00 93 1020.0
20260831115544 69 0.0 0.0 0.00 0.00 0.00 93 1020.0
20260831115044 69 0.0 0.0 0.00 0.00 0.00 93 1020.1
20260831114606 69 0.0 0.0 0.00 0.00 0.00 93 1020.0
20260831114043 69 0.0 0.0 0.00 0.00 0.00 93 1019.9
20260831113545 69 0.0 0.0 0.00 0.00 0.00 93 1020.0
20260831113107 69 0.0 0.0 0.00 0.00 0.00 93 1020.0
20260831112547 69 0.0 0.0 0.00 0.00 0.00 93 1020.0
20260831112044 69 0.0 0.0 0.00 0.00 0.00 93 1019.8
20260831111607 69 0.0 0.0 0.00 0.00 0.00 93 1019.7
20260831111045 69 0.0 0.0 0.00 0.00 0.00 93 1019.6
20260831110549 69 0.0 0.0 0.00 0.00 0.00 93 1019.5
20260831110101 69 0.0 0.0 0.00 0.00 0.00 93 1019.5
20260831105547 69 0.0 0.0 0.00 0.00 0.00 93 1019.4
20260831105048 69 0.0 0.0 0.00 0.00 0.00 93 1019.3
20260831104557 69 0.0 0.0 0.00 0.00 0.00 93 1019.1
20260831104048 69 0.0 0.0 0.00 0.00 0.00 93 1019.2
20260831103546 69 0.0 0.0 0.00 0.00 0.00 93 1019.2
20260831103057 70 0.0 0.0 0.00 0.00 0.00 93 1019.2
20260831102547 70 0.0 0.0 0.00 0.00 0.00 93 1019.2
20260831102047 70 0.0 0.0 0.00 0.00 0.00 93 1019.2
20260831101610 70 0.0 0.0 0.00 0.00 0.00 93 1019.1
20260831101047 70 0.0 0.0 0.00 0.00 0.00 93 1019.1
20260831100547 70 0.0 0.0 0.00 0.00 0.00 93 1019.2
20260831100121 69 0.0 0.0 0.00 0.00 0.00 92 1019.3
20260831095550 69 0.0 0.0 0.00 0.00 0.00 92 1019.2
20260831095047 69 0.0 0.0 0.00 0.00 0.00 92 1019.3
20260831094556 69 0.0 0.0 0.00 0.00 0.00 92 1019.3
20260831094051 69 0.0 0.0 0.00 0.00 0.00 92 1019.1
20260831093547 69 0.0 0.0 0.00 0.00 0.00 92 1019.0
20260831093128 70 0.0 0.0 0.00 0.00 0.00 92 1019.0
20260831092546 70 0.0 0.0 0.00 0.00 0.00 92 1018.9
20260831092049 70 0.0 0.0 0.00 0.00 0.00 92 1018.9
20260831091609 70 0.0 0.0 0.00 0.00 0.00 92 1018.9
20260831091047 70 0.0 0.0 0.00 0.00 0.00 92 1018.8
20260831090547 70 0.0 0.0 0.00 0.00 0.00 92 1018.8
20260831090131 70 0.0 0.0 0.00 0.00 0.00 92 1018.8
20260831085549 70 0.0 0.0 0.00 0.00 0.00 92 1018.8
20260831085051 70 0.0 0.0 0.00 0.00 0.00 92 1018.8
20260831084604 70 0.0 0.0 0.00 0.00 0.00 92 1018.8
20260831084054 70 0.0 0.0 0.00 0.00 0.00 92 1018.8
20260831083547 70 0.0 0.0 0.00 0.00 0.00 92 1018.7
20260831083111 70 0.0 0.0 0.00 0.00 0.00 92 1018.7
20260831082547 70 0.0 0.0 0.00 0.00 0.00 91 1018.7
20260831082048 70 0.0 0.0 0.00 0.00 0.00 91 1018.7
20260831081606 70 0.0 0.0 0.00 0.00 0.00 91 1018.7
20260831081055 70 0.0 0.0 0.00 0.00 0.00 91 1018.8
20260831080547 70 0.0 0.0 0.00 0.00 0.00 91 1018.7
20260831080130 70 0.0 0.0 0.00 0.00 0.00 91 1018.7
20260831075548 70 0.0 0.0 0.00 0.00 0.00 91 1018.7
20260831075048 70 0.0 0.0 0.00 0.00 0.00 91 1018.7
20260831074558 70 0.0 0.0 0.00 0.00 0.00 91 1018.7
20260831074047 70 0.0 0.0 0.00 0.00 0.00 91 1018.7
20260831073546 70 0.0 0.0 0.00 0.00 0.00 91 1018.5
20260831073112 70 0.0 0.0 0.00 0.00 0.00 91 1018.5
20260831072548 70 0.0 0.0 0.00 0.00 0.00 91 1018.5
20260831072047 70 0.0 0.0 0.00 0.00 0.00 90 1018.5
20260831071558 70 0.0 0.0 0.00 0.00 0.00 90 1018.5
20260831071047 71 0.0 0.0 0.00 0.00 0.00 90 1018.5
20260831070549 71 0.0 0.0 0.00 0.00 0.00 90 1018.6
20260831070108 71 0.0 0.0 0.00 0.00 0.00 90 1018.6
20260831065548 71 0.0 0.0 0.00 0.00 0.00 90 1018.6
20260831065047 71 0.0 0.0 0.00 0.00 0.00 91 1018.6
20260831064605 71 0.0 0.0 0.00 0.00 0.00 91 1018.6
20260831064047 71 0.0 0.0 0.00 0.00 0.00 90 1018.6
20260831063546 71 0.0 0.0 0.00 0.00 0.00 90 1018.6
20260831063114 71 0.0 0.0 0.00 0.00 0.00 90 1018.7
20260831062548 71 0.0 0.0 0.00 0.00 0.00 90 1018.7
20260831062049 71 0.0 0.0 0.00 0.00 0.00 90 1018.7
20260831061558 71 0.0 0.0 0.00 0.00 0.00 90 1018.8
20260831061049 71 0.0 0.0 0.00 0.00 0.00 90 1018.8
20260831060548 71 0.0 0.0 0.00 0.00 0.00 90 1018.9
20260831060112 72 0.0 0.0 0.00 0.00 0.00 90 1018.9
20260831055546 72 0.0 0.0 0.00 0.00 0.00 90 1019.0
20260831055047 72 0.0 0.0 0.00 0.00 0.00 89 1019.1
20260831054615 72 0.0 0.0 0.00 0.00 0.00 89 1019.2
20260831054047 72 0.0 0.0 0.00 0.00 0.00 89 1019.2
20260831053547 72 0.0 0.0 0.00 0.00 0.00 89 1019.2
20260831053130 72 0.0 0.0 0.00 0.00 0.00 89 1019.3
20260831052548 72 0.0 0.0 0.00 0.00 0.00 89 1019.2
20260831052047 72 0.0 0.0 0.00 0.00 0.00 89 1019.3
20260831051604 72 0.0 0.0 0.00 0.00 0.00 89 1019.3
20260831051047 72 0.0 0.0 0.00 0.00 0.00 89 1019.3
20260831050547 72 0.0 0.0 0.00 0.00 0.00 89 1019.3
20260831050111 73 0.0 0.0 0.00 0.00 0.00 88 1019.3
20260831045548 73 0.0 0.0 0.00 0.00 0.00 88 1019.4
20260831045047 73 0.0 0.0 0.00 0.00 0.00 88 1019.4
20260831044644 73 0.0 0.0 0.00 0.00 0.00 88 1019.5
20260831044047 73 0.0 0.0 0.00 0.00 0.00 88 1019.5
20260831043547 73 0.0 0.0 0.00 0.00 0.00 88 1019.6
20260831043100 73 0.0 0.0 0.00 0.00 0.00 88 1019.5
20260831042547 73 0.0 0.0 0.00 0.00 0.00 87 1019.5
20260831042047 73 0.0 0.0 0.00 0.00 0.00 87 1019.5
20260831041614 73 0.0 0.0 0.00 0.00 0.00 87 1019.5
20260831041047 73 0.0 0.0 0.00 0.00 0.00 87 1019.6
20260831040548 73 0.0 0.0 0.00 0.00 0.00 87 1019.5
20260831040108 74 0.0 0.0 0.00 0.00 0.00 87 1019.5
20260831035547 74 0.0 0.0 0.00 0.00 0.00 87 1019.5
20260831035047 74 0.0 0.0 0.00 0.00 0.00 87 1019.5
20260831034601 74 0.0 0.0 0.00 0.00 0.00 86 1019.5
20260831034047 74 0.0 0.0 0.00 0.00 0.00 86 1019.5
20260831033547 74 0.0 0.0 0.00 0.00 0.00 86 1019.6
20260831033111 74 0.0 0.0 0.00 0.00 0.00 86 1019.6
20260831032547 74 0.0 0.0 0.00 0.00 0.00 86 1019.5
20260831032047 74 0.0 0.0 0.00 0.00 0.00 86 1019.5
20260831031602 74 0.0 0.0 0.00 0.00 0.00 86 1019.6
20260831031047 74 0.0 0.0 0.00 0.00 0.00 86 1019.6
20260831030549 74 0.0 0.0 0.00 0.00 0.00 86 1019.7
20260831030107 74 0.0 0.0 0.00 0.00 0.00 85 1019.6
20260831025550 74 0.0 0.0 0.00 0.00 0.00 86 1019.7
20260831025047 74 0.0 0.0 0.00 0.00 0.00 85 1019.8
20260831024606 74 0.0 0.0 0.00 0.00 0.00 85 1020.0
20260831024047 74 0.0 0.0 0.00 0.00 0.00 85 1020.0
20260831023546 74 0.0 0.0 0.00 0.00 0.00 85 1020.0
20260831023107 75 0.0 0.0 0.00 0.00 0.00 85 1020.0
20260831022548 75 0.0 0.0 0.00 0.00 0.00 84 1020.2
20260831022051 75 0.0 0.0 0.00 0.00 0.00 84 1020.2
20260831021601 75 0.0 0.0 0.00 0.00 0.00 83 1020.2
20260831021044 75 0.0 0.0 0.00 0.00 0.00 83 1020.1
20260831020544 75 0.0 0.0 0.00 0.00 0.00 84 1019.9
20260831020100 75 0.0 0.0 0.00 0.00 0.00 83 1019.9
20260831015551 75 0.0 0.0 0.00 0.00 0.00 83 1019.8
20260831015048 76 0.0 0.0 0.00 0.00 0.00 83 1019.9
20260831014604 76 0.0 0.0 0.00 0.00 0.00 83 1019.8
20260831014047 76 0.0 0.0 0.00 0.00 0.00 82 1019.8
20260831013547 76 0.0 0.0 0.00 0.00 0.00 82 1019.7
20260831013110 76 0.0 0.0 0.00 0.00 0.00 82 1019.8
20260831012545 76 0.0 0.0 0.00 0.00 0.00 82 1019.8
20260831012044 76 0.0 0.0 0.00 0.00 0.00 81 1019.8
20260831011602 76 0.0 0.0 0.00 0.00 0.00 81 1020.0
20260831011047 77 0.0 0.0 0.00 0.00 0.00 80 1019.9
20260831010548 77 0.0 0.0 0.00 0.00 0.00 80 1019.9
20260831010120 77 0.0 0.0 0.00 0.00 0.00 79 1019.9
20260831005600 77 0.0 0.0 0.00 0.00 0.00 79 1019.7
20260831005049 77 0.0 0.0 0.00 0.00 0.00 79 1019.6
20260831004614 77 0.0 0.0 0.00 0.00 0.00 78 1019.5
20260831004049 78 0.0 0.0 0.00 0.00 0.00 78 1019.6
20260831003548 78 0.0 0.0 0.00 0.00 0.00 78 1019.6
20260831003104 78 0.0 0.0 0.00 0.00 0.00 77 1019.6
20260831002550 78 0.0 0.0 0.00 0.00 0.00 77 1019.6
20260831002048 78 0.0 0.0 0.00 0.00 0.00 77 1019.5
20260831001601 78 0.0 0.0 0.00 0.00 0.00 76 1019.6
20260831001049 79 0.0 0.0 0.00 0.00 0.00 76 1019.5
20260831000547 79 0.0 0.0 0.00 0.00 0.00 76 1019.5
20260831000109 79 0.0 0.0 0.00 0.00 0.00 76 1019.4
20260830235549 79 0.0 0.0 0.00 0.00 0.00 75 1019.3
20260830235048 79 0.0 0.0 0.00 0.00 0.00 74 1019.4
20260830234635 79 0.0 0.0 0.00 0.00 0.00 74 1019.4
20260830234047 79 0.0 0.0 0.00 0.00 0.00 74 1019.5
20260830233545 80 0.0 0.0 0.00 0.00 0.00 73 1019.6
20260830233100 80 0.0 0.0 0.00 0.00 0.00 72 1019.7
20260830232545 80 0.0 0.0 0.00 0.00 0.00 72 1019.6
20260830232046 80 0.0 0.0 0.00 0.00 0.00 71 1019.4
20260830231607 81 0.0 0.0 0.00 0.00 0.00 71 1019.5
20260830231046 81 0.0 0.0 0.00 0.00 0.00 70 1019.4
20260830230548 81 0.0 0.0 0.00 0.00 0.00 70 1019.3
20260830230106 82 0.0 0.0 0.00 0.00 0.00 71 1019.4